When you browse on this site, cookies collect data to enhance your experience and personalize the content and advertising you see.
Visit our Privacy Policy to learn more. By continuing to use the site, you agree to this use of cookies and data.
  • în România
  • Lista ţărilor
  • Pe 7 zile
  • Temperatura apei
  • Meteo pe hartă
  • Widget-uri
  • user-avatar
    Intrare

    Meteo pe oră la La Rioja

    Astăzi, 21 Noiembrie, Joi

    Timp Temperatura Precipitaţii Vânt Presiune Umiditate
    00:00 +30°C° 0 mm 2 m/s 713 mmHg 45%
    01:00 +30°C° 0 mm 2 m/s 712 mmHg 45%
    02:00 +29°C° 0 mm 2 m/s 712 mmHg 46%
    03:00 +29°C° 0 mm 2 m/s 712 mmHg 49%
    04:00 +28°C° 0 mm 1 m/s 712 mmHg 53%
    05:00 +27°C° 0 mm 1 m/s 711 mmHg 56%
    06:00 +28°C° 0 mm 2 m/s 712 mmHg 54%
    07:00 +29°C° 0 mm 2 m/s 712 mmHg 52%
    08:00 +30°C° 0 mm 2 m/s 713 mmHg 51%
    09:00 +33°C° 0 mm 3 m/s 712 mmHg 47%
    10:00 +34°C° 0 mm 3 m/s 712 mmHg 44%
    11:00 +35°C° 0 mm 3 m/s 712 mmHg 40%
    12:00 +36°C° 0 mm 3 m/s 711 mmHg 38%
    13:00 +37°C° 0 mm 3 m/s 711 mmHg 35%
    14:00 +38°C° 0 mm 2 m/s 710 mmHg 33%
    15:00 +38°C° 0 mm 3 m/s 709 mmHg 31%
    16:00 +39°C° 0 mm 3 m/s 709 mmHg 30%
    17:00 +39°C° 0 mm 3 m/s 708 mmHg 28%
    18:00 +38°C° 0 mm 2 m/s 709 mmHg 29%
    19:00 +37°C° 0 mm 2 m/s 709 mmHg 31%
    20:00 +35°C° 0 mm 1 m/s 709 mmHg 33%
    21:00 +35°C° 0 mm 1 m/s 710 mmHg 35%
    22:00 +35°C° 0 mm 2 m/s 710 mmHg 37%
    23:00 +34°C° 0 mm 2 m/s 710 mmHg 39%

    Mâine, 22 Noiembrie, Vineri

    Timp Temperatura Precipitaţii Vânt Presiune Umiditate
    00:00 +33°C° 0.2 mm 3 m/s 710 mmHg 45%
    01:00 +32°C° 0.2 mm 5 m/s 711 mmHg 51%
    02:00 +30°C° 0.2 mm 7 m/s 711 mmHg 56%
    03:00 +29°C° 0.5 mm 7 m/s 711 mmHg 62%
    04:00 +27°C° 0.5 mm 6 m/s 712 mmHg 67%
    05:00 +26°C° 0.5 mm 6 m/s 712 mmHg 73%
    06:00 +26°C° 0.4 mm 6 m/s 713 mmHg 72%
    07:00 +26°C° 0.4 mm 5 m/s 714 mmHg 71%
    08:00 +27°C° 0.4 mm 5 m/s 715 mmHg 70%
    09:00 +27°C° 0.1 mm 4 m/s 715 mmHg 69%
    10:00 +27°C° 0.1 mm 3 m/s 715 mmHg 69%
    11:00 +27°C° 0.1 mm 2 m/s 715 mmHg 69%
    12:00 +29°C° 0.1 mm 2 m/s 714 mmHg 63%
    13:00 +30°C° 0.1 mm 2 m/s 714 mmHg 57%
    14:00 +31°C° 0.1 mm 3 m/s 713 mmHg 51%
    15:00 +32°C° 0 mm 2 m/s 713 mmHg 51%
    16:00 +32°C° 0 mm 2 m/s 713 mmHg 50%
    17:00 +32°C° 0 mm 2 m/s 712 mmHg 49%
    18:00 +32°C° 0 mm 2 m/s 713 mmHg 51%
    19:00 +31°C° 0 mm 2 m/s 713 mmHg 53%
    20:00 +31°C° 0 mm 3 m/s 713 mmHg 54%
    21:00 +30°C° 0.1 mm 3 m/s 714 mmHg 58%
    22:00 +30°C° 0.1 mm 3 m/s 714 mmHg 62%
    23:00 +29°C° 0.1 mm 4 m/s 715 mmHg 66%

    Poimâine, 23 Noiembrie, Sâmbătă

    Timp Temperatura Precipitaţii Vânt Presiune Umiditate
    00:00 +28°C° 0.5 mm 3 m/s 714 mmHg 68%
    01:00 +28°C° 0.5 mm 3 m/s 714 mmHg 71%
    02:00 +27°C° 0.5 mm 3 m/s 713 mmHg 73%
    03:00 +27°C° 0.7 mm 3 m/s 713 mmHg 73%
    04:00 +27°C° 0.7 mm 3 m/s 713 mmHg 74%
    05:00 +26°C° 0.7 mm 3 m/s 713 mmHg 74%
    06:00 +27°C° 0.1 mm 3 m/s 713 mmHg 71%
    07:00 +27°C° 0.1 mm 3 m/s 714 mmHg 68%
    08:00 +28°C° 0.1 mm 3 m/s 714 mmHg 65%
    09:00 +29°C° 0 mm 3 m/s 713 mmHg 62%
    10:00 +30°C° 0 mm 3 m/s 713 mmHg 59%
    11:00 +31°C° 0 mm 3 m/s 712 mmHg 56%
    12:00 +31°C° 0 mm 3 m/s 712 mmHg 53%
    13:00 +33°C° 0 mm 4 m/s 711 mmHg 50%
    14:00 +34°C° 0 mm 4 m/s 710 mmHg 47%
    15:00 +34°C° 0 mm 4 m/s 709 mmHg 46%
    16:00 +34°C° 0 mm 4 m/s 708 mmHg 46%
    17:00 +35°C° 0 mm 5 m/s 708 mmHg 45%
    18:00 +34°C° 0 mm 5 m/s 708 mmHg 48%
    19:00 +33°C° 0 mm 5 m/s 708 mmHg 50%
    20:00 +32°C° 0 mm 5 m/s 709 mmHg 53%
    21:00 +32°C° 0 mm 4 m/s 709 mmHg 55%
    22:00 +30°C° 0 mm 3 m/s 709 mmHg 57%
    23:00 +30°C° 0 mm 1 m/s 709 mmHg 59%

    24 Noiembrie, Duminică

    Timp Temperatura Precipitaţii Vânt Presiune Umiditate
    00:00 +29°C° 0 mm 1 m/s 709 mmHg 60%
    01:00 +29°C° 0 mm 1 m/s 708 mmHg 61%
    02:00 +29°C° 0 mm 2 m/s 708 mmHg 62%
    03:00 +28°C° 0 mm 2 m/s 707 mmHg 63%
    04:00 +28°C° 0 mm 2 m/s 707 mmHg 64%
    05:00 +27°C° 0 mm 2 m/s 707 mmHg 66%
    06:00 +28°C° 0 mm 2 m/s 707 mmHg 62%
    07:00 +29°C° 0 mm 2 m/s 707 mmHg 58%
    08:00 +30°C° 0 mm 2 m/s 706 mmHg 54%
    09:00 +32°C° 0 mm 2 m/s 706 mmHg 50%
    10:00 +34°C° 0 mm 2 m/s 706 mmHg 47%
    11:00 +35°C° 0 mm 2 m/s 705 mmHg 43%
    12:00 +37°C° 0 mm 2 m/s 705 mmHg 40%
    13:00 +38°C° 0 mm 3 m/s 704 mmHg 37%
    14:00 +39°C° 0 mm 3 m/s 703 mmHg 34%
    15:00 +39°C° 0 mm 3 m/s 703 mmHg 32%
    16:00 +40°C° 0 mm 3 m/s 702 mmHg 31%
    17:00 +40°C° 0 mm 3 m/s 702 mmHg 30%
    18:00 +39°C° 0.1 mm 3 m/s 703 mmHg 33%
    19:00 +38°C° 0.1 mm 4 m/s 703 mmHg 36%
    20:00 +37°C° 0.1 mm 4 m/s 704 mmHg 39%
    21:00 +34°C° 0.8 mm 5 m/s 704 mmHg 49%
    22:00 +32°C° 0.8 mm 7 m/s 705 mmHg 59%
    23:00 +29°C° 0.8 mm 8 m/s 705 mmHg 69%

    25 Noiembrie, Luni

    Timp Temperatura Precipitaţii Vânt Presiune Umiditate
    00:00 +28°C° 0.4 mm 7 m/s 705 mmHg 69%
    01:00 +28°C° 0.4 mm 6 m/s 706 mmHg 69%
    02:00 +27°C° 0.4 mm 4 m/s 706 mmHg 69%
    03:00 +27°C° 0.1 mm 5 m/s 706 mmHg 70%
    04:00 +26°C° 0.1 mm 5 m/s 707 mmHg 71%
    05:00 +26°C° 0.1 mm 6 m/s 708 mmHg 73%
    06:00 +26°C° 0.2 mm 7 m/s 708 mmHg 64%
    07:00 +27°C° 0.2 mm 8 m/s 709 mmHg 55%
    08:00 +28°C° 0.2 mm 8 m/s 710 mmHg 47%
    09:00 +28°C° 0 mm 8 m/s 710 mmHg 44%
    10:00 +29°C° 0 mm 7 m/s 711 mmHg 40%
    11:00 +29°C° 0 mm 7 m/s 711 mmHg 37%
    12:00 +30°C° 0 mm 6 m/s 710 mmHg 36%
    13:00 +30°C° 0 mm 6 m/s 710 mmHg 36%
    14:00 +30°C° 0 mm 5 m/s 709 mmHg 35%
    15:00 +30°C° 0 mm 5 m/s 709 mmHg 37%
    16:00 +29°C° 0 mm 4 m/s 709 mmHg 40%
    17:00 +29°C° 0 mm 4 m/s 709 mmHg 42%
    18:00 +28°C° 0.1 mm 4 m/s 709 mmHg 46%
    19:00 +27°C° 0.1 mm 3 m/s 710 mmHg 51%
    20:00 +26°C° 0.1 mm 3 m/s 711 mmHg 55%
    21:00 +25°C° 0.8 mm 3 m/s 711 mmHg 61%
    22:00 +24°C° 0.8 mm 3 m/s 711 mmHg 66%
    23:00 +22°C° 0.8 mm 4 m/s 712 mmHg 71%

    26 Noiembrie, Marţi

    Timp Temperatura Precipitaţii Vânt Presiune Umiditate
    00:00 +21°C° 2.1 mm 4 m/s 712 mmHg 76%
    01:00 +20°C° 2.1 mm 4 m/s 712 mmHg 81%
    02:00 +18°C° 2.1 mm 4 m/s 712 mmHg 87%
    03:00 +18°C° 1.6 mm 3 m/s 713 mmHg 85%
    04:00 +17°C° 1.6 mm 3 m/s 713 mmHg 83%
    05:00 +17°C° 1.6 mm 2 m/s 714 mmHg 82%
    06:00 +17°C° 0.3 mm 2 m/s 714 mmHg 82%
    07:00 +16°C° 0.3 mm 2 m/s 715 mmHg 82%
    08:00 +16°C° 0.3 mm 2 m/s 715 mmHg 82%
    09:00 +16°C° 0.2 mm 3 m/s 715 mmHg 83%
    10:00 +16°C° 0.2 mm 3 m/s 715 mmHg 83%
    11:00 +16°C° 0.2 mm 3 m/s 715 mmHg 84%
    12:00 +16°C° 0 mm 3 m/s 714 mmHg 80%
    13:00 +17°C° 0 mm 2 m/s 713 mmHg 75%
    14:00 +18°C° 0 mm 2 m/s 713 mmHg 71%
    15:00 +18°C° 0 mm 2 m/s 712 mmHg 67%
    16:00 +19°C° 0 mm 3 m/s 712 mmHg 63%
    17:00 +20°C° 0 mm 3 m/s 712 mmHg 59%
    18:00 +19°C° 0 mm 2 m/s 712 mmHg 62%
    19:00 +19°C° 0 mm 2 m/s 713 mmHg 65%
    20:00 +20°C° 0 mm 1 m/s 713 mmHg 68%
    21:00 +19°C° 0 mm 1 m/s 713 mmHg 69%
    22:00 +19°C° 0 mm 1 m/s 713 mmHg 70%
    23:00 +19°C° 0 mm 1 m/s 714 mmHg 71%
    Arată mai mult